User: anonymous   Login
Location: Follega
(52.8850°N, 5.7362°E)
Time: 15:48:42
(UTC+00:00)
Language:

Cosmos 1242 Rocket - Orbit

View from above orbital plane
View from above orbital plane
View from above satellite
View from above satellite

Ground track
Ground track

The orbit data is extracted from the following two-line orbital elements,

1 12155U 81008B   20225.49250540  .00000854  00000-0  25653-4 0  9993
2 12155  81.1631 133.0446 0028366 359.9157   0.2070 15.32814963168872
Epoch (UTC): 12 August 2020 11:49:12
Eccentricity: 0.0028366
inclination: 81.1631°
perigee height: 448 km
apogee height: 487 km
right ascension of ascending node: 133.0446°
argument of perigee: 359.9157°
revolutions per day: 15.32814963
mean anomaly at epoch: 0.2070°
orbit number at epoch: 16887

The dashed part of the orbit path shows where the satellite is in the earth's shadow,  

DLR